星链-32174 (STARLINK-32174)

导读 | 豆包AI

STARLINK-32174是美国SpaceX公司星链(Starlink)星座的成员卫星,于2024年10月15日发射入轨。星链项目旨在低地球轨道构建大规模卫星星座,为全球提供高速宽带互联网服务,该卫星具备自主避撞能力,采用氪工质霍尔推进器,服役寿命约5-7年,退役后会主动离轨再入大气层焚毁,是星链全球覆盖组网的重要一环。

基本信息
目录编号:
61509
目录名称:
STARLINK-32174
国际标识:
2024-183A
轨道中心:
EARTH
卫星名称:
星链-32174
卫星全名:
星链-32174 (STARLINK-32174)
卫星状态:
在轨 (已飞行563 天)
发射日期:
2024-10-15 UTC
国别 :
美国 (US)
星等 :
--
轨道信息
数据来源 国际轨道数据
星历时间: 2026-04-30T22:54:08+0800
12小时前
查看轨道信息
半长轴: 6853.37km
偏心率: 0.0001271
轨道倾角: 53.161°
近地点辐角 86.835°
升交点赤经 248.426°
平近点角 273.279°
近地点: 474.361km
远地点: 476.105km
周期: 94.106分钟
每日圈数: 15.301941
详细信息
固有亮度:
5
最大亮度:
2.5
卫星平台:
Starlink V1.0
覆盖范围:
全球
运营商:
太空探索技术公司
运营商所在国:
美国
制造商(研发单位):
太空探索技术公司
制造商所在国:
美国
使用方式:
暂无
卫星简介
Starlink 计划是 SpaceX 推出的全球卫星互联网项目,通过发射低轨道卫星,为全球尤其是偏远地区提供高速、低延迟的互联网服务。自 2019 年起,Starlink 已部署数千颗卫星,旨在缩小全球数字鸿沟,推动互联网普及。该项目还为军事、航空等行业提供通信支持,带来广泛经济效益。
2D轨道图
3D轨道图
轨道高度分析图
轨道倾角分析图
轨道综合分析图
查看轨道综合分析图